Location: Malanoce
(44.2500°N, 7.4667°E)
Time: 13:18:10
(UTC+00:00)

USA 215 - Pass Details

Date: 17 November 2025
Orbit: 1101 x 1106 km, 123.0° (Epoch: 02 December)

Event Time Altitude Azimuth Distance (km) Brightness Sun altitude
Rises 16:44:03 0° 123° (ESE) 3,913 5.8 -7.9°
Reaches altitude 10° 16:46:31 10° 122° (ESE) 2,958 5.2 -8.3°
Maximum altitude 16:53:03 80° 37° (NE) 1,125 3.3 -9.4°
Drops below altitude 10° 16:59:37 10° 311° (NW) 2,972 6.0 -10.6°
Sets 17:02:07 0° 311° (NW) 3,932 6.7 -11.0°
